Location: Ffald-y-Brenin
(52.0833°N, 4.0000°W)
Time: 18:01:00
(UTC+00:00)

Cosmos 1934 Rocket - Pass Details

Date: 18 February 2020
Orbit: 939 x 998 km, 83.0° (Epoch: 01 April)

Event Time Altitude Azimuth Distance (km) Brightness Sun altitude
Rises 04:05:19 0° 349° (N) 3,685 7.2 -31.1°
Reaches altitude 10° 04:07:50 10° 351° (N) 2,742 6.5 -30.8°
Maximum altitude 04:14:09 84° 80° (E) 1,001 3.9 -29.8°
Enters shadow 04:17:09 34° 166° (SSE) 1,576 5.0 -29.4°
Exits shadow 04:18:55 19° 168° (SSE) 2,174 5.7 -29.2°
Drops below altitude 10° 04:20:31 10° 169° (S) 2,756 6.3 -28.9°
Sets 04:23:02 0° 170° (S) 3,704 7.0 -28.6°
